Location: Bretagne
(43.8474°N, 0.4650°W)
Time: 10:55:53
(UTC+00:00)

SL-24 R/B - RUBIN 2 - Pass Details

Date: 15 January 2026
Orbit: 602 x 985 km, 64.6° (Epoch: 10 February)

Event Time Altitude Azimuth Distance (km) Brightness Sun altitude
Rises 18:18:29 0° 327° (NNW) 2,873 7.2 -15.6°
Reaches altitude 10° 18:20:47 10° 332° (NNW) 1,955 6.3 -16.0°
Maximum altitude 18:25:05 59° 52° (NE) 703 3.5 -16.8°
Enters shadow 18:28:00 20° 127° (SE) 1,426 5.0 -17.3°
